Retour au catalogue

STARLINK-5765

ActifCommunicationsVLEO
NORAD 57147·PAYLOAD·🇺🇸 United States

Lancé Jun 23, 2023 depuis Cape Canaveral Space Force Station

Loading…

Prochains Passages (prochaines 24 heures)

TLE

FraisSource: CelesTrak SupGP

Époque: Sep 15, 2026, 01:47 UTC

1 57147C 23090AY  26258.07479167  .00009596  00000+0  34753-3 0  2583
2 57147  42.9994 274.0675 0001380 263.5961 112.8511 15.27577044    10

Suivez STARLINK-5765 en temps réel avec AllMySat

Download on the App Store